[[{"header":{"parameterUnit":"m.s-1","parameterCategory":1,"la1":30.2991,"la2":30.254,"lo1":-89.0895,"lo2":-89.0444,"dy":0.0017,"dx":0.0017,"nx":28,"ny":28,"refTime":"2026-02-24T09:00:00:Z","depth":0,"parameterNumber":2,"parameterNumberName":"U-component_of_WINDS"},"data":[0,0,0,0,0,0,0,0,0,0,0,0,0,0,0,0,0,0,0,0,0,0,0,0,0,0,0,0,0,0,0,0,0,0,0,0,0,0,0,0,0,0,0,0,0,0,0,0,0,0,0,0,0,0,0,0,0,0,0.6063,0.6064,0,0.611,0.6111,0.6111,0.6119,0.6119,0.6119,0.6118,0.617,0.6172,0.6173,0,0,0,0,0,0,0,0,0,0,0,0,0,0.5986,0.5987,0.6063,0.6064,0.6065,0.611,0.6111,0.6112,0.612,0.6119,0.6119,0.6118,0.6169,0.6171,0.6173,0,0,0,0,0,0,0,0,0,0,0,0,0,0.6025,0.5988,0.6063,0.6074,0.6075,0.611,0.6111,0.6112,0.612,0.6119,0.6118,0.6118,0.6169,0.6171,0.6174,0.6202,0,0,0.6182,0.6183,0,0,0,0,0,0,0,0,0.6023,0.6028,0.6072,0.6073,0.6075,0.6108,0.6103,0.6142,0.612,0.6103,0.6118,0.6118,0.615,0.6154,0.6164,0.6205,0.6207,0.6182,0.6184,0.6185,0.6185,0,0,0,0,0,0,0,0.602,0.6026,0.6082,0.6072,0.6074,0.6078,0.6083,0.611,0.613,0.6104,0.6105,0.611,0.6151,0.6162,0.6166,0.6208,0.6182,0.6184,0.6186,0.6187,0.6278,0.6279,0,0,0,0,0,0,0.6015,0.6023,0.6081,0.6083,0.6047,0.608,0.6085,0.6098,0.6129,0.6133,0.6111,0.611,0.6158,0.6163,0.6168,0.6206,0.6185,0.6187,0.6189,0.6277,0.6278,0.6279,0,0,0,0,0,0,0.6013,0.602,0.6079,0.6054,0.6061,0.6082,0.6096,0.61,0.6111,0.6134,0.6138,0.6118,0.6157,0.6164,0.6194,0.6208,0.6188,0.6191,0.6276,0.6277,0.6279,0.6281,0,0,0,0,0,0,0.6011,0.6019,0.6029,0.6054,0.6063,0.6103,0.6097,0.6101,0.6115,0.6115,0.6142,0.6146,0.6157,0.619,0.6197,0.6211,0.6193,0.6275,0.6277,0.6278,0.6279,0.6282,0.6284,0,0,0,0,0,0.6008,0.6027,0.6029,0.6036,0.6075,0.6103,0.6109,0.6121,0.6116,0.6127,0.6142,0.6145,0.6205,0.6193,0.6201,0.6216,0.6274,0.6276,0.6278,0.6278,0.6281,0.6284,0,0,0,0,0,0,0.6003,0.603,0.6033,0.606,0.608,0.6105,0.6119,0.6123,0.6144,0.6144,0.6159,0.6165,0.6195,0.6208,0.6195,0.6247,0.624,0.6243,0.6237,0.624,0.6242,0.6239,0.6195,0,0,0,0,0,0.6005,0.6025,0.6048,0.607,0.608,0.6098,0.611,0.6118,0.6139,0.6147,0.6165,0.6186,0.6211,0.6226,0.6249,0.6281,0.6289,0.6296,0.6298,0.6299,0.6303,0.6325,0.6329,0.6285,0.6285,0.6285,0,0,0.601,0.6027,0.6039,0.607,0.6086,0.6108,0.6104,0.6127,0.6144,0.6151,0.6181,0.6195,0.6221,0.6253,0.6268,0.6265,0.6317,0.6302,0.6303,0.6305,0.6327,0.6331,0.6335,0.6287,0.6286,0.6286,0,0,0.603,0.6044,0.6065,0.6081,0.6105,0.6118,0.6123,0.6148,0.6158,0.6188,0.6195,0.6217,0.6256,0.6275,0.629,0.6321,0.6325,0.6328,0.6339,0.636,0.6364,0.6367,0.6381,0.6385,0.6331,0.6331,0.6331,0,0.6033,0.6064,0.6076,0.6099,0.6114,0.6121,0.6145,0.6161,0.6191,0.6203,0.6198,0.6251,0.6268,0.6307,0.6315,0.6325,0.6334,0.6325,0.6362,0.6366,0.6369,0.6382,0.6387,0.6331,0.6331,0.6331,0.6331,0,0.6069,0.6091,0.6106,0.6135,0.6152,0.6175,0.6192,0.6208,0.6215,0.6229,0.6262,0.6283,0.6312,0.6322,0.6328,0.6362,0.636,0.6359,0.6352,0.6373,0.6386,0.6391,0.6331,0.6331,0.6331,0.6331,0,0,0.6085,0.6123,0.6128,0.6143,0.6171,0.619,0.6215,0.6243,0.6258,0.628,0.6303,0.6338,0.6338,0.6355,0.6364,0.6383,0.641,0.638,0.6381,0.6387,0.6453,0.6455,0.646,0.6413,0.6414,0.6414,0.6451,0,0.611,0.6153,0.6166,0.6204,0.6227,0.6235,0.6258,0.6279,0.6293,0.6316,0.6332,0.6358,0.6355,0.6366,0.6384,0.6402,0.6423,0.64,0.6437,0.6439,0.6432,0.6466,0.6468,0.6502,0.6456,0.6457,0.6458,0,0.6144,0.6167,0.6207,0.6236,0.6246,0.6265,0.6294,0.6315,0.6341,0.635,0.637,0.6379,0.6409,0.6399,0.6442,0.6426,0.6442,0.6454,0.6456,0.6461,0.645,0.6475,0.6512,0.6518,0.6465,0.6465,0.6464,0,0.6155,0.6196,0.6226,0.6238,0.6272,0.6286,0.6301,0.6326,0.6343,0.6369,0.6381,0.641,0.6426,0.645,0.6467,0.6458,0.651,0.6501,0.6521,0.6521,0.6532,0.6532,0.6575,0.654,0.6539,0.6539,0.6539,0,0.6182,0.6207,0.6232,0.625,0.628,0.6295,0.6325,0.634,0.6363,0.6387,0.6397,0.6419,0.644,0.6466,0.648,0.6516,0.6522,0.6533,0.6537,0.6533,0.6532,0.6545,0.6544,0.6541,0.654,0.654,0.654,0,0.62,0.6217,0.6251,0.628,0.6289,0.6309,0.6336,0.6356,0.6371,0.6402,0.641,0.6435,0.6466,0.6486,0.6526,0.6536,0.6576,0.6578,0.6567,0.6569,0.6589,0.6588,0.6644,0.6653,0.6609,0.661,0.661,0,0.6216,0.6236,0.6268,0.6285,0.63,0.6326,0.6344,0.6361,0.638,0.6413,0.643,0.6463,0.6489,0.654,0.6563,0.6595,0.66,0.6617,0.6604,0.6602,0.6603,0.6603,0.6606,0.662,0.662,0.662,0.662,0,0.6245,0.6253,0.6278,0.6308,0.6329,0.6353,0.6377,0.6391,0.6413,0.6434,0.6467,0.6488,0.653,0.6563,0.6598,0.6616,0.6623,0.6624,0.6631,0.6628,0.6623,0.6629,0.6575,0.6623,0.6623,0.6623,0.6623,0.6622,0.6264,0.6283,0.631,0.6339,0.6359,0.6382,0.6403,0.6422,0.6449,0.6484,0.6494,0.6529,0.6558,0.6606,0.6625,0.6654,0.6652,0.6661,0.6664,0.6666,0.6668,0.6617,0.666,0.666,0.666,0.666,0.666,0,0.6295,0.6314,0.634,0.6374,0.6398,0.6402,0.643,0.645,0.648,0.6507,0.6533,0.6573,0.6607,0.6633,0.6668,0.6687,0.6692,0.6696,0.6696,0.6701,0.6667,0.6659,0.6692,0.6692,0.6692,0.6692,0.6692,0.6692,0.6314,0.6348,0.636,0.6405,0.6424,0.6458,0.6474,0.6497,0.6519,0.6562,0.659,0.6607,0.6635,0.6673,0.6705,0.6712,0.6726,0.673,0.6738,0.6706,0.6703,0.6699,0.6692,0.6732,0.6732,0.677,0.6771,0.6771]},{"header":{"parameterUnit":"m.s-1","parameterCategory":1,"la1":30.2991,"la2":30.254,"lo1":-89.0895,"lo2":-89.0444,"dy":0.0017,"dx":0.0017,"nx":28,"ny":28,"refTime":"2026-02-24T09:00:00:Z","depth":0,"parameterNumber":3,"parameterNumberName":"V-component_of_WINDS"},"data":[0,0,0,0,0,0,0,0,0,0,0,0,0,0,0,0,0,0,0,0,0,0,0,0,0,0,0,0,0,0,0,0,0,0,0,0,0,0,0,0,0,0,0,0,0,0,0,0,0,0,0,0,0,0,0,0,0,0,6.2215,6.2216,0,6.2287,6.2288,6.2289,6.2294,6.2293,6.2292,6.2291,6.2358,6.236,6.2363,0,0,0,0,0,0,0,0,0,0,0,0,0,6.2075,6.2077,6.2215,6.2216,6.2217,6.2287,6.2288,6.2289,6.2294,6.2293,6.2292,6.2291,6.2357,6.236,6.2363,0,0,0,0,0,0,0,0,0,0,0,0,0,6.214,6.2078,6.2214,6.2228,6.223,6.2287,6.2288,6.2289,6.2294,6.2293,6.2292,6.2291,6.2356,6.236,6.2363,6.241,0,0,6.2375,6.2377,0,0,0,0,0,0,0,0,6.2136,6.2145,6.2225,6.2227,6.2229,6.228,6.2263,6.2329,6.2294,6.2269,6.2291,6.229,6.2333,6.2338,6.2354,6.2413,6.2416,6.2375,6.2378,6.2379,6.238,0,0,0,0,0,0,0,6.2132,6.2142,6.2243,6.2226,6.2229,6.2228,6.2236,6.2276,6.2306,6.2271,6.2272,6.2281,6.2333,6.235,6.2356,6.2417,6.2375,6.2378,6.2381,6.2382,6.252,6.2521,0,0,0,0,0,0,6.2126,6.2138,6.2241,6.2245,6.2179,6.2231,6.224,6.2265,6.2306,6.2311,6.2282,6.2281,6.2345,6.2351,6.2358,6.2418,6.2379,6.2383,6.2385,6.2519,6.252,6.2522,0,0,0,0,0,0,6.2123,6.2135,6.2238,6.2192,6.2205,6.2235,6.2263,6.2267,6.2284,6.2314,6.2319,6.2294,6.2344,6.2353,6.2398,6.242,6.2384,6.2388,6.2517,6.2519,6.2521,6.2536,0,0,0,0,0,0,6.2119,6.2134,6.2153,6.2192,6.2208,6.2279,6.2264,6.2269,6.2292,6.2291,6.2327,6.2331,6.2344,6.2393,6.2402,6.2424,6.2391,6.2515,6.2518,6.2521,6.2533,6.2538,6.2542,0,0,0,0,0,6.2114,6.2152,6.2154,6.2166,6.2233,6.228,6.2288,6.2304,6.2293,6.2312,6.2332,6.233,6.2416,6.2397,6.2408,6.2432,6.2514,6.2517,6.252,6.2531,6.2537,6.2542,0,0,0,0,0,0,6.2111,6.2157,6.216,6.2213,6.2243,6.2281,6.2305,6.2309,6.234,6.2338,6.2354,6.2362,6.2407,6.2423,6.2402,6.248,6.2463,6.2469,6.2468,6.2474,6.2478,6.2474,6.2394,0,0,0,0,0,6.2117,6.2154,6.2191,6.2234,6.2249,6.2275,6.2296,6.2305,6.2336,6.2348,6.2371,6.2398,6.2432,6.2453,6.2485,6.2535,6.2544,6.2557,6.2561,6.2564,6.2569,6.2599,6.2606,6.2532,6.2532,6.2532,0,0,6.2128,6.2158,6.218,6.2234,6.2259,6.2295,6.2285,6.2323,6.235,6.2353,6.2399,6.2416,6.2448,6.2497,6.2519,6.2512,6.2591,6.2568,6.2571,6.2574,6.2603,6.261,6.2616,6.2535,6.2534,6.2534,0,0,6.2169,6.2195,6.2236,6.2261,6.23,6.2317,6.2326,6.2365,6.2377,6.2424,6.2428,6.2458,6.2515,6.2539,6.2558,6.261,6.2611,6.262,6.2643,6.2671,6.2677,6.2682,6.2703,6.271,6.2624,6.2624,6.2624,0,6.2179,6.2236,6.2254,6.2295,6.2319,6.2326,6.2366,6.2389,6.2434,6.245,6.2441,6.2515,6.2536,6.2592,6.2605,6.2619,6.2631,6.2616,6.2675,6.2681,6.2686,6.2706,6.2713,6.2625,6.2625,6.2625,6.2625,0,6.2247,6.2287,6.2314,6.2363,6.2389,6.2428,6.2451,6.2475,6.2483,6.2501,6.2548,6.2575,6.2614,6.2627,6.2633,6.2684,6.2679,6.2672,6.2656,6.2694,6.2713,6.272,6.2627,6.2626,6.2626,6.2626,0,0,6.2288,6.2348,6.2358,6.2381,6.2425,6.2455,6.2494,6.2536,6.2557,6.2588,6.2622,6.2671,6.2666,6.2688,6.2697,6.2722,6.2764,6.2712,6.2713,6.2723,6.2824,6.283,6.2839,6.2764,6.2765,6.2767,6.2822,0,6.2336,6.2411,6.2429,6.2492,6.253,6.2537,6.2572,6.2602,6.2619,6.2652,6.267,6.2706,6.2695,6.2709,6.2734,6.2754,6.2785,6.2749,6.2795,6.2797,6.279,6.2848,6.2855,6.2906,6.2829,6.2831,6.2831,0,6.2402,6.2439,6.2507,6.2549,6.2565,6.2596,6.2637,6.2668,6.2701,6.2712,6.2738,6.2745,6.2786,6.2767,6.2823,6.2799,6.2818,6.283,6.2833,6.2839,6.2818,6.2858,6.2922,6.2931,6.2843,6.2842,6.2841,0,6.2429,6.2495,6.2545,6.2564,6.2613,6.2635,6.2656,6.2689,6.2713,6.2747,6.2763,6.2799,6.282,6.2848,6.2864,6.2848,6.292,6.2901,6.293,6.293,6.2946,6.2945,6.3016,6.2955,6.2954,6.2954,6.2954,0,6.2481,6.2523,6.2558,6.2589,6.2636,6.2656,6.2701,6.2721,6.2751,6.2785,6.2791,6.2823,6.2841,6.2875,6.2887,6.2933,6.2941,6.2951,6.2954,6.2952,6.2951,6.2966,6.2964,6.2956,6.2956,6.2956,6.2955,0,6.252,6.2545,6.2601,6.2644,6.2655,6.2688,6.2724,6.2753,6.2771,6.2815,6.2825,6.2853,6.2893,6.2912,6.296,6.2968,6.3021,6.302,6.3011,6.3013,6.3041,6.3039,6.3126,6.3139,6.3067,6.3068,6.3068,0,6.2553,6.2587,6.2634,6.2659,6.2682,6.2721,6.2747,6.2767,6.2794,6.2836,6.286,6.2901,6.2936,6.2999,6.3022,6.3059,6.3061,6.3089,6.3066,6.3064,6.3064,6.3063,6.3067,6.3093,6.3094,6.3094,6.3095,0,6.2611,6.2622,6.2661,6.2706,6.2737,6.2772,6.2805,6.2825,6.285,6.2879,6.2922,6.2949,6.3,6.3041,6.308,6.3099,6.3101,6.3102,6.3111,6.311,6.3104,6.311,6.3025,6.31,6.3099,6.3099,6.3099,6.3099,6.265,6.2681,6.272,6.2764,6.2792,6.2824,6.2855,6.2879,6.2916,6.2962,6.297,6.3016,6.3049,6.3103,6.3123,6.3158,6.3152,6.3164,6.3168,6.3171,6.3174,6.3097,6.3165,6.3165,6.3165,6.3165,6.3164,0,6.271,6.2736,6.2776,6.2826,6.286,6.2862,6.2899,6.2927,6.2969,6.3001,6.3036,6.3086,6.3125,6.3152,6.3193,6.3215,6.3218,6.3225,6.3225,6.323,6.3176,6.3166,6.3223,6.3223,6.3223,6.3223,6.3223,6.3223,6.2746,6.2799,6.2815,6.2883,6.2908,6.2956,6.2978,6.3007,6.3033,6.309,6.3125,6.3143,6.3173,6.3216,6.3252,6.3259,6.3274,6.3283,6.3289,6.3239,6.3233,6.3227,6.3218,6.3285,6.3285,6.334,6.3341,6.3341]}]]